This demonstration page uses our WeatherBlox Daily Observations layout. Learn more.

Left ArrowRight Arrow

53.62937, 11.41316

Hourly Observations for February 18, 2019

Temp ( °F °C ) Dew Point ( °F °C ) Humidity (%) Winds ( mph kmh ) Pressure ( in mb ) Visibility ( mi km ) Precip ( " mm )
12:20 am 00:20 Mostly Cloudy 41 5 36 2 81 81 SE 5 7 30.13 1020 30 48 N/A
1:20 am 01:20 Mostly Cloudy 39 4 36 2 87 87 S 3 6 30.13 1020 30 48 N/A
2:20 am 02:20 Mostly Cloudy 39 4 36 2 87 87 S 3 6 30.13 1020 30 48 N/A
3:20 am 03:20 Mostly Cloudy 37 3 34 1 87 87 SSE 3 6 30.10 1019 30 48 N/A
4:20 am 04:20 Partly Cloudy with Fog 34 1 32 0 93 93 SSE 2 4 30.10 1019 30 48 N/A
5:20 am 05:20 Partly Cloudy with Fog 36 2 34 1 93 93 S 3 6 30.10 1019 30 48 N/A
6:20 am 06:20 Partly Cloudy with Fog 36 2 34 1 93 93 VRB 2 4 30.07 1018 6 9 N/A
6:38 am 06:38 Mostly Clear with Fog 34 1 32 0 93 93 SSW 2 4 30.07 1018 4 6 N/A
7:20 am 07:20 Mostly Clear with Fog 36 2 34 1 93 93 SSW 5 7 30.07 1018 4 7 N/A
7:52 am 07:52 Partly Cloudy with Fog 36 2 34 1 93 93 SSW 5 7 30.10 1019 4 7 N/A
8:20 am 08:20 Partly Cloudy with Fog 36 2 34 1 93 93 SW 5 7 30.10 1019 4 7 N/A
9:20 am 09:20 Partly Cloudy with Fog 39 4 34 1 81 81 SW 3 6 30.10 1019 4 7 N/A
9:59 am 09:59 Mostly Sunny 41 5 34 1 76 76 SW 6 9 30.10 1019 30 48 N/A
10:20 am 10:20 Mostly Sunny 43 6 36 2 76 76 SW 6 9 30.07 1018 30 48 N/A
11:20 am 11:20 Mostly Sunny 46 8 36 2 66 66 SSW 6 9 30.09 1019 30 48 N/A
12:20 pm 12:20 Mostly Sunny 50 10 37 3 62 62 SW 6 9 30.06 1018 30 48 N/A
1:20 pm 13:20 Mostly Sunny 52 11 37 3 58 58 SW 6 9 30.03 1017 30 48 N/A
2:20 pm 14:20 Mostly Sunny 55 13 37 3 51 51 SSW 7 11 30.00 1016 30 48 N/A
3:20 pm 15:20 Mostly Sunny 55 13 36 2 47 47 SSW 6 9 30.00 1016 30 48 N/A
4:20 pm 16:20 Mostly Sunny 55 13 37 3 51 51 S 5 7 30.00 1016 30 48 N/A
5:20 pm 17:20 Mostly Sunny 52 11 36 2 54 54 SW 2 4 29.97 1015 30 48 N/A
6:20 pm 18:20 Mostly Clear 48 9 36 2 62 62 SSW 3 6 29.98 1015 30 48 N/A
7:20 pm 19:20 Mostly Clear 45 7 36 2 71 71 S 3 6 29.98 1015 30 48 N/A
8:20 pm 20:20 Mostly Clear 43 6 36 2 76 76 S 3 6 29.95 1014 30 48 N/A
9:20 pm 21:20 Mostly Clear 43 6 34 1 71 71 S 3 6 29.95 1014 30 48 N/A
10:20 pm 22:20 Mostly Clear 43 6 34 1 71 71 S 5 7 29.92 1013 30 48 N/A
11:20 pm 23:20 Partly Cloudy 41 5 34 1 76 76 S 3 6 29.92 1013 30 48 N/A

Powered by AerisWeather